Daviess Cnty AP, Washington,, IN

1:59 AM EDT on July 20, 2019 (GMT -0400)
Daviess County

Weather History for KDCY - May, 2019

Change the Weather History Date:

Sunday, May 12, 2019

  Actual Average (KLWV) Record (KLWV)
Temperature  
Mean Temperature 49 °F -  
Max Temperature 52 °F 73 °F 91 °F (2018)
Min Temperature 46 °F 53 °F 41 °F (2013)
Degree Days  
Heating Degree Days 16    
Moisture  
Dew Point 48 °F    
Average Humidity 96    
Maximum Humidity 100    
Minimum Humidity 90    
Precipitation  
Precipitation 0.00 in - - ()
Sea Level Pressure  
Sea Level Pressure 29.80 in    
Wind  
Wind Speed 6 mph (NNW)    
Max Wind Speed 10 mph    
Max Gust Speed -    
Visibility 10 miles    
Events Rain    
Averages and records for this station are not official NWS values.
T = Trace of Precipitation, MM = Missing Value Source: NWS Daily Summary

Daily Weather History Graph

Daily Weather History Graph

Search for Another Location

Airport or City:

Astronomy

May. 12, 2019 Rise Set
Actual Time 6:39 AM EDT 8:50 PM EDT
Civil Twilight 6:09 AM EDT 9:20 PM EDT
Nautical Twilight 5:33 AM EDT 9:57 PM EDT
Astronomical Twilight 4:54 AM EDT 10:36 PM EDT
Moon 1:58 PM EDT (5/12) 3:13 AM EDT (5/12)
Length of Visible Light 15h 10m
Length of Day
14h 11m
First Quarter, 57% of the Moon is Illuminated
May 12
First Quarter
May 18
Full
May 26
Last Quarter
Jun 3
New
Jun 10
First Quarter

Hourly Weather History & Observations

Time (EDT) Temp. Dew Point Humidity Pressure Visibility Wind Dir Wind Speed Gust Speed Precip Events Conditions
12:15 AM 51.8 °F 51.4 °F 99% 29.79 in 7.0 mi North 6.9 mph - N/A   Overcast
12:35 AM 51.8 °F 51.3 °F 98% 29.79 in 7.0 mi NNE 5.8 mph - N/A   Overcast
12:55 AM 51.4 °F 51.3 °F 99% 29.79 in 10.0 mi North 6.9 mph - N/A   Overcast
1:15 AM 51.6 °F 51.3 °F 99% 29.78 in 10.0 mi NNE 5.8 mph - N/A   Overcast
1:35 AM 51.4 °F 51.3 °F 99% 29.78 in 10.0 mi NNE 8.1 mph - N/A   Overcast
1:55 AM 51.4 °F 51.3 °F 99% 29.78 in 10.0 mi North 6.9 mph - N/A   Overcast
2:15 AM 50.5 °F 50.4 °F 99% 29.77 in 10.0 mi NNE 9.2 mph - N/A   Overcast
2:35 AM 50.4 °F 50.2 °F 99% 29.77 in 10.0 mi North 8.1 mph - N/A   Overcast
2:55 AM 50.0 °F 50.0 °F 100% 29.77 in 10.0 mi NNE 10.4 mph - N/A   Overcast
3:15 AM 49.5 °F 49.3 °F 99% 29.77 in 10.0 mi North 6.9 mph - N/A   Overcast
3:35 AM 49.3 °F 49.1 °F 99% 29.77 in 10.0 mi North 6.9 mph - N/A   Overcast
3:55 AM 49.1 °F 48.7 °F 99% 29.78 in 5.0 mi NNE 6.9 mph - N/A   Overcast
4:15 AM 48.4 °F 48.2 °F 99% 29.78 in 5.0 mi North 8.1 mph - N/A   Light Drizzle
4:35 AM 47.7 °F 47.5 °F 99% 29.77 in 5.0 mi North 8.1 mph - N/A   Overcast
4:55 AM 47.5 °F 47.3 °F 99% 29.77 in 7.0 mi North 9.2 mph - N/A   Overcast
5:15 AM 47.3 °F 47.3 °F 100% 29.77 in 10.0 mi North 4.6 mph - N/A   Overcast
5:35 AM 47.5 °F 47.3 °F 99% 29.78 in 10.0 mi NNE 5.8 mph - N/A   Overcast
5:55 AM 47.5 °F 47.3 °F 99% 29.78 in 10.0 mi North 5.8 mph - N/A   Overcast
6:15 AM 47.5 °F 47.3 °F 99% 29.78 in 10.0 mi North 5.8 mph - N/A   Overcast
6:35 AM 47.3 °F 46.9 °F 99% 29.78 in 10.0 mi North 5.8 mph - N/A   Overcast
6:55 AM 46.9 °F 46.8 °F 99% 29.78 in 10.0 mi North 6.9 mph - N/A   Overcast
7:15 AM 46.9 °F 46.8 °F 99% 29.79 in 10.0 mi North 6.9 mph - N/A   Overcast
7:35 AM 47.3 °F 46.9 °F 99% 29.79 in 10.0 mi North 4.6 mph - N/A   Overcast
7:55 AM 46.9 °F 46.8 °F 99% 29.79 in 10.0 mi North 4.6 mph - N/A   Overcast
8:15 AM 47.3 °F 46.9 °F 99% 29.79 in 10.0 mi North 6.9 mph - N/A   Overcast
8:35 AM 47.5 °F 47.3 °F 99% 29.80 in 10.0 mi North 4.6 mph - N/A   Overcast
8:55 AM 47.7 °F 47.5 °F 99% 29.79 in 10.0 mi North 4.6 mph - N/A   Overcast
9:15 AM 47.8 °F 47.7 °F 99% 29.80 in 10.0 mi North 4.6 mph - N/A   Overcast
9:35 AM 48.2 °F 47.7 °F 98% 29.80 in 10.0 mi NNW 4.6 mph - N/A   Overcast
9:55 AM 48.0 °F 47.8 °F 99% 29.80 in 10.0 mi NNW 4.6 mph - N/A Rain Light Rain
10:15 AM 47.7 °F 47.5 °F 99% 29.81 in 10.0 mi Calm Calm - N/A   Overcast
10:35 AM 48.2 °F 48.0 °F 99% 29.80 in 10.0 mi Calm Calm - N/A Rain Light Rain
10:55 AM 48.2 °F 47.8 °F 99% 29.81 in 10.0 mi North 3.5 mph - N/A Rain Rain
11:15 AM 48.6 °F 48.2 °F 99% 29.81 in 10.0 mi Calm Calm - N/A   Overcast
11:35 AM 48.9 °F 48.2 °F 97% 29.82 in 10.0 mi NW 4.6 mph - N/A   Overcast
11:55 AM 48.9 °F 48.4 °F 98% 29.81 in 10.0 mi Calm Calm - N/A   Overcast
12:15 PM 49.1 °F 48.2 °F 97% 29.82 in 10.0 mi WNW 4.6 mph - N/A   Overcast
12:35 PM 49.3 °F 48.7 °F 98% 29.82 in 10.0 mi WNW 5.8 mph - N/A   Overcast
12:55 PM 49.8 °F 48.7 °F 96% 29.81 in 10.0 mi Calm Calm - N/A   Overcast
1:15 PM 51.1 °F 48.9 °F 92% 29.81 in 10.0 mi NW 5.8 mph - N/A   Overcast
1:35 PM 50.7 °F 48.4 °F 92% 29.81 in 10.0 mi NW 6.9 mph - N/A   Overcast
1:55 PM 51.3 °F 48.6 °F 90% 29.80 in 10.0 mi WNW 4.6 mph - N/A   Overcast
2:15 PM 51.6 °F 48.7 °F 90% 29.80 in 10.0 mi WSW 5.8 mph - N/A   Overcast
2:35 PM 51.1 °F 48.4 °F 90% 29.80 in 10.0 mi NW 5.8 mph - N/A   Overcast
2:55 PM 51.6 °F 48.9 °F 90% 29.79 in 10.0 mi WNW 5.8 mph - N/A   Overcast
3:15 PM 51.8 °F 48.9 °F 90% 29.80 in 10.0 mi NW 5.8 mph - N/A   Overcast
3:35 PM 51.1 °F 48.9 °F 92% 29.80 in 10.0 mi WNW 8.1 mph - N/A   Overcast
4:15 PM 51.4 °F 49.3 °F 92% 29.79 in 10.0 mi NW 5.8 mph - N/A   Overcast
4:35 PM 52.2 °F 49.5 °F 91% 29.79 in 10.0 mi NW 4.6 mph - N/A   Overcast
4:55 PM 51.8 °F 49.1 °F 90% 29.78 in 10.0 mi West 4.6 mph - N/A   Overcast
5:15 PM 51.4 °F 48.9 °F 91% 29.79 in 10.0 mi NW 5.8 mph - N/A   Overcast
5:35 PM 51.1 °F 48.9 °F 92% 29.80 in 10.0 mi WNW 6.9 mph - N/A   Overcast
5:55 PM 50.7 °F 49.5 °F 95% 29.80 in 10.0 mi NW 6.9 mph - N/A   Overcast
6:15 PM 50.9 °F 49.1 °F 94% 29.80 in 10.0 mi NW 6.9 mph - N/A   Overcast
6:35 PM 51.3 °F 49.3 °F 93% 29.81 in 10.0 mi NNW 6.9 mph - N/A   Overcast
6:55 PM 51.1 °F 48.9 °F 92% 29.81 in 10.0 mi NW 5.8 mph - N/A   Overcast
7:15 PM 50.9 °F 49.1 °F 94% 29.80 in 10.0 mi NW 8.1 mph - N/A   Overcast
7:35 PM 50.5 °F 48.2 °F 92% 29.80 in 10.0 mi NW 5.8 mph - N/A   Overcast
7:55 PM 50.7 °F 48.4 °F 92% 29.81 in 10.0 mi NW 6.9 mph - N/A   Overcast
8:15 PM 50.4 °F 48.9 °F 95% 29.81 in 10.0 mi NW 5.8 mph - N/A   Overcast
8:35 PM 50.0 °F 48.4 °F 94% 29.81 in 10.0 mi NW 10.4 mph - N/A   Overcast
8:55 PM 50.0 °F 48.2 °F 94% 29.82 in 10.0 mi NW 9.2 mph - N/A   Overcast
9:15 PM 49.8 °F 48.4 °F 95% 29.82 in 10.0 mi NW 6.9 mph - N/A   Overcast
9:35 PM 49.6 °F 48.0 °F 94% 29.82 in 10.0 mi WNW 6.9 mph - N/A   Overcast
9:55 PM 49.6 °F 47.7 °F 93% 29.83 in 10.0 mi NW 8.1 mph - N/A   Overcast
10:15 PM 49.5 °F 47.8 °F 94% 29.83 in 10.0 mi NW 6.9 mph - N/A   Overcast
10:35 PM 49.5 °F 47.3 °F 92% 29.84 in 10.0 mi WNW 6.9 mph - N/A   Overcast
10:55 PM 49.5 °F 47.3 °F 92% 29.84 in 10.0 mi NW 6.9 mph - N/A   Overcast
11:15 PM 49.5 °F 47.8 °F 94% 29.85 in 10.0 mi NW 6.9 mph - N/A   Overcast
11:35 PM 49.3 °F 47.8 °F 95% 29.85 in 10.0 mi WNW 4.6 mph - N/A   Overcast
11:55 PM 49.3 °F 47.3 °F 93% 29.85 in 10.0 mi WNW 4.6 mph - N/A   Overcast